Wellsville, NY

4:02 PM EDT on June 26, 2017 (GMT -0400)
Wellsville Municipal-Tarantine

Weather History for KELZ - May, 2013

Change the Weather History Date:

Thursday, May 16, 2013

  Actual Average (KDSV) Record (KDSV)
Temperature  
Mean Temperature 60 °F -  
Max Temperature 73 °F 70 °F 91 °F (1962)
Min Temperature 48 °F 45 °F 31 °F (1959)
Degree Days  
Heating Degree Days 4    
Growing Degree Days 10 (Base 50)    
Moisture  
Dew Point 39 °F    
Average Humidity 46    
Maximum Humidity 80    
Minimum Humidity 24    
Precipitation  
Precipitation 0.00 in - - ()
Sea Level Pressure  
Sea Level Pressure 29.86 in    
Wind  
Wind Speed 7 mph (WNW)    
Max Wind Speed 23 mph    
Max Gust Speed 37 mph    
Visibility 10 miles    
Events      
Averages and records for this station are not official NWS values.
T = Trace of Precipitation, MM = Missing Value Source: NWS Daily Summary

Daily Weather History Graph

Daily Weather History Graph

Search for Another Location

Airport or City:

Trip Planner

Search our weather history database for the weather conditions in past years. The results will help you decide how hot, cold, wet, or windy it might be!

Date:

Astronomy

May. 16, 2013 Rise Set
Actual Time 5:49 AM EDT 8:27 PM EDT
Civil Twilight 5:17 AM EDT 8:59 PM EDT
Nautical Twilight 4:37 AM EDT 9:39 PM EDT
Astronomical Twilight 3:52 AM EDT 10:25 PM EDT
Moon 11:23 AM EDT (5/16) 12:45 AM EDT (5/16)
Length of Visible Light 15h 41m
Length of Day
14h 37m
Waxing Crescent, 35% of the Moon is Illuminated
May 16
Waxing Crescent
May 18
First Quarter
May 25
Full
May 31
Last Quarter
Jun 8
New

Hourly Weather History & Observations

Time (EDT) Temp. Dew Point Humidity Pressure Visibility Wind Dir Wind Speed Gust Speed Precip Events Conditions
12:56 AM 59.0 °F 44.1 °F 58% 29.78 in 10.0 mi Calm Calm - N/A   Clear
1:56 AM 57.9 °F 44.1 °F 60% 29.78 in 10.0 mi WSW 3.5 mph - N/A   Clear
2:56 AM 55.9 °F 44.1 °F 64% 29.77 in 10.0 mi WSW 3.5 mph - N/A   Clear
3:56 AM 55.0 °F 44.1 °F 67% 29.78 in 10.0 mi West 3.5 mph - N/A   Mostly Cloudy
4:56 AM 54.0 °F 44.1 °F 69% 29.78 in 10.0 mi Calm Calm - N/A   Mostly Cloudy
5:56 AM 53.1 °F 44.1 °F 71% 29.82 in 10.0 mi Calm Calm - N/A   Overcast
6:56 AM 54.0 °F 45.0 °F 72% 29.83 in 10.0 mi WSW 3.5 mph - N/A   Mostly Cloudy
7:56 AM 55.9 °F 50.0 °F 80% 29.84 in 10.0 mi Calm Calm - N/A   Overcast
8:56 AM 62.1 °F 46.0 °F 56% 29.85 in 10.0 mi WNW 4.6 mph - N/A   Mostly Cloudy
9:56 AM 66.9 °F 39.0 °F 36% 29.84 in 10.0 mi NW 10.4 mph 20.7 mph N/A   Clear
10:56 AM 69.1 °F 37.0 °F 31% 29.84 in 10.0 mi West 12.7 mph 20.7 mph N/A   Clear
11:56 AM 72.0 °F 37.0 °F 28% 29.84 in 10.0 mi West 20.7 mph 24.2 mph N/A   Partly Cloudy
12:56 PM 72.0 °F 35.1 °F 26% 29.84 in 10.0 mi NW 17.3 mph 35.7 mph 0.00 in   Partly Cloudy
1:56 PM 73.9 °F 35.1 °F 24% 29.84 in 10.0 mi West 19.6 mph 33.4 mph N/A   Scattered Clouds
2:56 PM 73.0 °F 35.1 °F 25% 29.85 in 10.0 mi WNW 23.0 mph 36.8 mph N/A   Clear
3:56 PM 72.0 °F 36.0 °F 27% 29.86 in 10.0 mi WNW 17.3 mph 31.1 mph N/A   Scattered Clouds
4:56 PM 71.1 °F 37.9 °F 30% 29.86 in 10.0 mi WNW 19.6 mph 28.8 mph N/A   Scattered Clouds
5:56 PM 69.1 °F 37.9 °F 32% 29.88 in 10.0 mi WNW 20.7 mph 28.8 mph N/A   Scattered Clouds
6:56 PM 66.0 °F 37.9 °F 36% 29.90 in 10.0 mi WNW 15.0 mph - N/A   Scattered Clouds
7:56 PM 64.0 °F 36.0 °F 35% 29.93 in 10.0 mi NW 19.6 mph 32.2 mph N/A   Clear
8:56 PM 60.1 °F 35.1 °F 39% 29.96 in 10.0 mi NW 18.4 mph 27.6 mph N/A   Clear
9:56 PM 54.0 °F 30.9 °F 41% 29.99 in 10.0 mi WNW 11.5 mph - N/A   Clear
10:56 PM 48.9 °F 28.9 °F 46% 30.00 in 10.0 mi NW 9.2 mph - N/A   Clear
11:56 PM 52.0 °F 30.0 °F 43% 30.01 in 10.0 mi NW 8.1 mph - N/A   Clear